Time,TemperatureF,DewpointF,PressureIn,WindDirection,WindDirectionDegrees,WindSpeedMPH,WindSpeedGustMPH,Humidity,HourlyPrecipIn,Conditions,Clouds,dailyrainin,SolarRadiationWatts/m^2,SoftwareType,DateUTC
2013-04-08 00:05:00,45.9,43.7,30.04,South,184,1.0,2.0,92,0.00,,,0.00,0,Wunderground v.1.15,2013-04-08 04:05:00,
2013-04-08 00:10:00,45.9,43.7,30.04,SW,229,2.0,2.0,92,0.00,,,0.00,0,Wunderground v.1.15,2013-04-08 04:10:00,
2013-04-08 00:15:00,45.9,43.7,30.04,WSW,246,1.0,2.0,92,0.00,,,0.00,0,Wunderground v.1.15,2013-04-08 04:15:00,
2013-04-08 00:19:00,45.9,44.0,30.04,SW,233,1.0,1.0,93,0.00,,,0.00,0,Wunderground v.1.15,2013-04-08 04:19:00,
2013-04-08 00:25:00,45.9,44.0,30.04,SSW,192,1.0,1.0,93,0.00,,,0.00,0,Wunderground v.1.15,2013-04-08 04:25:00,
2013-04-08 00:30:00,46.0,44.1,30.04,SSW,210,2.0,2.0,93,0.00,,,0.00,0,Wunderground v.1.15,2013-04-08 04:30:00,
2013-04-08 00:35:00,46.0,44.1,30.04,South,184,1.0,2.0,93,0.00,,,0.00,0,Wunderground v.1.15,2013-04-08 04:35:00,
2013-04-08 00:40:00,46.0,44.1,30.03,WSW,245,1.0,3.0,93,0.00,,,0.00,0,Wunderground v.1.15,2013-04-08 04:40:00,
2013-04-08 00:49:00,46.1,44.2,30.03,West,259,2.0,2.0,93,0.00,,,0.00,0,Wunderground v.1.15,2013-04-08 04:49:00,
2013-04-08 00:55:00,46.1,44.2,30.03,South,182,1.0,3.0,93,0.00,,,0.00,0,Wunderground v.1.15,2013-04-08 04:55:00,
2013-04-08 01:00:00,46.1,44.2,30.03,SSW,208,1.0,1.0,93,0.00,,,0.00,0,Wunderground v.1.15,2013-04-08 05:00:00,
2013-04-08 01:05:00,46.1,44.2,30.03,South,170,1.0,1.0,93,0.00,,,0.00,0,Wunderground v.1.15,2013-04-08 05:05:00,
2013-04-08 01:10:00,46.2,44.3,30.02,SSW,208,2.0,2.0,93,0.00,,,0.00,0,Wunderground v.1.15,2013-04-08 05:10:00,
2013-04-08 01:20:00,46.1,44.2,30.02,WSW,249,1.0,1.0,93,0.00,,,0.00,0,Wunderground v.1.15,2013-04-08 05:20:00,
2013-04-08 01:25:00,46.1,44.2,30.02,SSW,192,1.0,1.0,93,0.00,,,0.00,0,Wunderground v.1.15,2013-04-08 05:25:00,
2013-04-08 01:35:00,46.0,44.1,30.02,WSW,248,1.0,1.0,93,0.00,,,0.00,0,Wunderground v.1.15,2013-04-08 05:35:00,
2013-04-08 01:45:00,46.0,44.1,30.02,SSE,165,1.0,2.0,93,0.00,,,0.00,0,Wunderground v.1.15,2013-04-08 05:45:00,
2013-04-08 01:55:00,46.0,44.1,30.01,SSE,165,1.0,1.0,93,0.00,,,0.00,0,Wunderground v.1.15,2013-04-08 05:55:00,
2013-04-08 02:00:00,46.0,44.1,30.01,WNW,295,1.0,1.0,93,0.00,,,0.00,0,Wunderground v.1.15,2013-04-08 06:00:00,
2013-04-08 02:09:00,46.0,44.1,30.01,WSW,244,1.0,2.0,93,0.00,,,0.00,0,Wunderground v.1.15,2013-04-08 06:09:00,
2013-04-08 02:15:00,46.1,44.2,30.00,SW,219,1.0,2.0,93,0.00,,,0.00,0,Wunderground v.1.15,2013-04-08 06:15:00,
2013-04-08 02:20:00,46.1,44.2,30.00,SSW,202,1.0,1.0,93,0.00,,,0.00,0,Wunderground v.1.15,2013-04-08 06:20:00,
2013-04-08 02:29:00,46.2,44.3,30.00,SW,224,1.0,1.0,93,0.00,,,0.00,0,Wunderground v.1.15,2013-04-08 06:29:00,
2013-04-08 02:35:00,46.2,44.3,30.00,WSW,248,1.0,1.0,93,0.00,,,0.00,0,Wunderground v.1.15,2013-04-08 06:35:00,
2013-04-08 02:40:00,46.2,44.3,29.99,South,180,1.0,2.0,93,0.00,,,0.00,0,Wunderground v.1.15,2013-04-08 06:40:00,
2013-04-08 02:50:00,46.2,44.3,29.99,WSW,238,1.0,1.0,93,0.00,,,0.00,0,Wunderground v.1.15,2013-04-08 06:50:00,
2013-04-08 02:55:00,46.2,44.3,29.99,SW,221,1.0,1.0,93,0.00,,,0.00,0,Wunderground v.1.15,2013-04-08 06:55:00,
2013-04-08 03:05:00,46.1,44.2,29.99,WSW,253,1.0,1.0,93,0.00,,,0.00,0,Wunderground v.1.15,2013-04-08 07:05:00,
2013-04-08 03:15:00,46.2,44.3,29.99,WSW,240,1.0,2.0,93,0.00,,,0.00,0,Wunderground v.1.15,2013-04-08 07:15:00,
2013-04-08 03:25:00,46.3,44.4,29.98,SSW,198,1.0,2.0,93,0.00,,,0.00,0,Wunderground v.1.15,2013-04-08 07:25:00,
2013-04-08 03:35:00,46.4,44.2,29.99,SW,230,1.0,1.0,92,0.00,,,0.00,0,Wunderground v.1.15,2013-04-08 07:35:00,
2013-04-08 03:45:00,46.4,44.2,29.99,West,265,1.0,2.0,92,0.00,,,0.00,0,Wunderground v.1.15,2013-04-08 07:45:00,
2013-04-08 03:54:00,46.6,44.4,29.99,West,267,1.0,2.0,92,0.00,,,0.00,0,Wunderground v.1.15,2013-04-08 07:54:00,
2013-04-08 03:59:00,46.7,44.2,29.99,SE,131,1.0,2.0,91,0.00,,,0.00,0,Wunderground v.1.15,2013-04-08 07:59:00,
2013-04-08 04:05:00,46.8,44.3,29.99,West,260,1.0,2.0,91,0.00,,,0.00,0,Wunderground v.1.15,2013-04-08 08:05:00,
2013-04-08 04:10:00,46.8,44.3,30.00,WNW,286,1.0,1.0,91,0.00,,,0.00,0,Wunderground v.1.15,2013-04-08 08:10:00,
2013-04-08 04:20:00,46.8,44.0,30.00,West,279,1.0,1.0,90,0.00,,,0.00,0,Wunderground v.1.15,2013-04-08 08:20:00,
2013-04-08 04:25:00,46.8,44.0,30.00,WSW,241,0.0,1.0,90,0.00,,,0.00,0,Wunderground v.1.15,2013-04-08 08:25:00,
2013-04-08 04:34:00,46.8,44.0,30.00,SSW,205,0.0,0.0,90,0.00,,,0.00,0,Wunderground v.1.15,2013-04-08 08:34:00,
2013-04-08 04:40:00,46.8,44.0,30.00,SSW,195,0.0,0.0,90,0.00,,,0.00,0,Wunderground v.1.15,2013-04-08 08:40:00,
2013-04-08 04:45:00,46.7,43.9,30.00,SW,217,0.0,0.0,90,0.00,,,0.00,0,Wunderground v.1.15,2013-04-08 08:45:00,
2013-04-08 04:50:00,46.7,43.9,30.00,WSW,244,0.0,1.0,90,0.00,,,0.00,0,Wunderground v.1.15,2013-04-08 08:50:00,
2013-04-08 05:00:00,46.6,43.8,29.99,SSW,192,0.0,0.0,90,0.00,,,0.00,0,Wunderground v.1.15,2013-04-08 09:00:00,
2013-04-08 05:10:00,46.4,43.6,30.00,SW,223,0.0,0.0,90,0.00,,,0.00,0,Wunderground v.1.15,2013-04-08 09:10:00,
2013-04-08 05:20:00,46.4,43.6,30.00,WSW,253,0.0,0.0,90,0.00,,,0.00,0,Wunderground v.1.15,2013-04-08 09:20:00,
2013-04-08 05:25:00,46.3,43.8,30.00,WSW,237,0.0,0.0,91,0.00,,,0.00,0,Wunderground v.1.15,2013-04-08 09:25:00,
2013-04-08 05:30:00,46.3,43.8,30.00,WSW,246,0.0,0.0,91,0.00,,,0.00,0,Wunderground v.1.15,2013-04-08 09:30:00,
2013-04-08 05:40:00,46.2,43.7,30.00,South,182,0.0,0.0,91,0.00,,,0.00,0,Wunderground v.1.15,2013-04-08 09:40:00,
2013-04-08 05:45:00,46.1,43.6,30.00,WSW,248,0.0,0.0,91,0.00,,,0.00,0,Wunderground v.1.15,2013-04-08 09:45:00,
2013-04-08 05:55:00,46.1,43.6,30.00,SW,215,0.0,1.0,91,0.00,,,0.00,0,Wunderground v.1.15,2013-04-08 09:55:00,
2013-04-08 06:00:00,46.1,43.6,30.00,SW,220,0.0,0.0,91,0.00,,,0.00,0,Wunderground v.1.15,2013-04-08 10:00:00,
2013-04-08 06:05:00,46.1,43.6,30.00,SSW,209,0.0,0.0,91,0.00,,,0.00,0,Wunderground v.1.15,2013-04-08 10:05:00,
2013-04-08 06:10:00,46.1,43.6,30.00,South,172,0.0,0.0,91,0.00,,,0.00,0,Wunderground v.1.15,2013-04-08 10:10:00,
2013-04-08 06:20:00,46.0,43.5,30.00,South,175,0.0,0.0,91,0.00,,,0.00,0,Wunderground v.1.15,2013-04-08 10:20:00,
2013-04-08 06:30:00,45.9,43.4,30.01,South,176,0.0,0.0,91,0.00,,,0.00,7,Wunderground v.1.15,2013-04-08 10:30:00,
2013-04-08 06:35:00,45.8,43.3,30.01,SSW,194,0.0,0.0,91,0.00,,,0.00,12,Wunderground v.1.15,2013-04-08 10:35:00,
2013-04-08 06:44:00,45.7,43.2,30.01,SSW,202,0.0,0.0,91,0.00,,,0.00,21,Wunderground v.1.15,2013-04-08 10:44:00,
2013-04-08 06:50:00,45.7,43.2,30.01,South,181,0.0,0.0,91,0.00,,,0.00,23,Wunderground v.1.15,2013-04-08 10:50:00,
2013-04-08 06:55:00,45.7,43.5,30.01,South,182,0.0,0.0,92,0.00,,,0.00,26,Wunderground v.1.15,2013-04-08 10:55:00,
2013-04-08 07:00:00,45.6,43.4,30.02,South,182,0.0,0.0,92,0.00,,,0.00,32,Wunderground v.1.15,2013-04-08 11:00:00,
2013-04-08 07:10:00,45.7,43.5,30.03,SSW,210,0.0,0.0,92,0.00,,,0.00,62,Wunderground v.1.15,2013-04-08 11:10:00,
2013-04-08 07:15:00,45.8,43.6,30.03,SSW,209,0.0,0.0,92,0.00,,,0.00,76,Wunderground v.1.15,2013-04-08 11:15:00,
2013-04-08 07:24:00,46.0,43.8,30.03,SSW,210,0.0,0.0,92,0.00,,,0.00,69,Wunderground v.1.15,2013-04-08 11:24:00,
2013-04-08 07:35:00,46.3,44.1,30.04,NW,304,0.0,0.0,92,0.00,,,0.00,70,Wunderground v.1.15,2013-04-08 11:35:00,
2013-04-08 07:44:00,46.7,44.5,30.05,WNW,282,0.0,0.0,92,0.00,,,0.00,93,Wunderground v.1.15,2013-04-08 11:44:00,
2013-04-08 07:50:00,46.9,44.4,30.05,WNW,286,1.0,2.0,91,0.00,,,0.00,105,Wunderground v.1.15,2013-04-08 11:50:00,
2013-04-08 08:00:00,47.4,44.9,30.05,West,275,1.0,1.0,91,0.00,,,0.00,183,Wunderground v.1.15,2013-04-08 12:00:00,
2013-04-08 08:05:00,47.9,45.4,30.05,NW,317,1.0,2.0,91,0.00,,,0.00,209,Wunderground v.1.15,2013-04-08 12:05:00,
2013-04-08 08:10:00,48.5,45.7,30.05,NNW,336,1.0,2.0,90,0.00,,,0.00,214,Wunderground v.1.15,2013-04-08 12:10:00,
2013-04-08 08:15:00,49.0,45.6,30.05,NNW,332,1.0,2.0,88,0.00,,,0.00,158,Wunderground v.1.15,2013-04-08 12:15:00,
2013-04-08 08:25:00,49.7,46.0,30.05,West,275,2.0,5.0,87,0.00,,,0.00,211,Wunderground v.1.15,2013-04-08 12:25:00,
2013-04-08 08:29:00,50.1,46.1,30.05,NNW,328,2.0,2.0,86,0.00,,,0.00,167,Wunderground v.1.15,2013-04-08 12:29:00,
2013-04-08 08:35:00,50.4,46.1,30.05,WNW,296,2.0,2.0,85,0.00,,,0.00,195,Wunderground v.1.15,2013-04-08 12:35:00,
2013-04-08 08:44:00,51.0,46.3,30.06,NNW,336,1.0,1.0,84,0.00,,,0.00,202,Wunderground v.1.15,2013-04-08 12:44:00,
2013-04-08 08:50:00,51.5,46.5,30.06,WNW,303,1.0,2.0,83,0.00,,,0.00,244,Wunderground v.1.15,2013-04-08 12:50:00,
2013-04-08 08:55:00,51.8,46.5,30.06,WNW,290,2.0,2.0,82,0.00,,,0.00,339,Wunderground v.1.15,2013-04-08 12:55:00,
2013-04-08 09:00:00,52.2,46.5,30.06,North,355,1.0,2.0,81,0.00,,,0.00,186,Wunderground v.1.15,2013-04-08 13:00:00,
2013-04-08 09:10:00,52.9,46.9,30.05,NNW,340,0.0,2.0,80,0.00,,,0.00,269,Wunderground v.1.15,2013-04-08 13:10:00,
2013-04-08 09:15:00,53.3,47.0,30.05,North,5,0.0,2.0,79,0.00,,,0.00,251,Wunderground v.1.15,2013-04-08 13:15:00,
2013-04-08 09:25:00,53.5,46.1,30.05,North,355,1.0,2.0,76,0.00,,,0.00,234,Wunderground v.1.15,2013-04-08 13:25:00,
2013-04-08 09:34:00,54.0,46.6,30.05,West,270,1.0,4.0,76,0.00,,,0.00,237,Wunderground v.1.15,2013-04-08 13:34:00,
2013-04-08 09:39:00,54.4,46.6,30.05,ENE,76,2.0,2.0,75,0.00,,,0.00,483,Wunderground v.1.15,2013-04-08 13:39:00,
2013-04-08 09:45:00,54.9,46.8,30.05,NNE,28,2.0,3.0,74,0.00,,,0.00,325,Wunderground v.1.15,2013-04-08 13:45:00,
2013-04-08 09:50:00,55.2,46.7,30.06,North,360,1.0,2.0,73,0.00,,,0.00,492,Wunderground v.1.15,2013-04-08 13:50:00,
2013-04-08 09:59:00,56.0,45.6,30.06,NNW,332,2.0,2.0,68,0.00,,,0.00,244,Wunderground v.1.15,2013-04-08 13:59:00,
2013-04-08 10:05:00,56.3,46.6,30.07,NNW,344,1.0,4.0,70,0.00,,,0.00,475,Wunderground v.1.15,2013-04-08 14:05:00,
2013-04-08 10:15:00,56.8,46.3,30.07,WNW,300,2.0,2.0,68,0.00,,,0.00,480,Wunderground v.1.15,2013-04-08 14:15:00,
2013-04-08 10:20:00,57.1,45.8,30.07,WNW,284,1.0,1.0,66,0.00,,,0.00,585,Wunderground v.1.15,2013-04-08 14:20:00,
2013-04-08 10:30:00,57.9,46.2,30.07,NW,317,1.0,2.0,65,0.00,,,0.00,677,Wunderground v.1.15,2013-04-08 14:30:00,
2013-04-08 10:40:00,58.8,45.8,30.07,West,273,2.0,2.0,62,0.00,,,0.00,700,Wunderground v.1.15,2013-04-08 14:40:00,
2013-04-08 10:50:00,59.7,46.2,30.07,WNW,283,1.0,1.0,61,0.00,,,0.00,664,Wunderground v.1.15,2013-04-08 14:50:00,
2013-04-08 10:59:00,60.5,45.2,30.07,WNW,286,2.0,2.0,57,0.00,,,0.00,480,Wunderground v.1.15,2013-04-08 14:59:00,
2013-04-08 11:10:00,60.7,43.9,30.08,NNW,334,2.0,3.0,54,0.00,,,0.00,601,Wunderground v.1.15,2013-04-08 15:10:00,
2013-04-08 11:15:00,60.4,44.2,30.07,WNW,297,3.0,3.0,55,0.00,,,0.00,563,Wunderground v.1.15,2013-04-08 15:15:00,
2013-04-08 11:25:00,60.6,43.9,30.08,West,277,2.0,4.0,54,0.00,,,0.00,775,Wunderground v.1.15,2013-04-08 15:25:00,
2013-04-08 11:35:00,61.5,47.0,30.07,SSE,159,2.0,2.0,59,0.00,,,0.00,788,Wunderground v.1.15,2013-04-08 15:35:00,
2013-04-08 11:44:00,61.6,47.1,30.07,SSW,196,2.0,2.0,59,0.00,,,0.00,802,Wunderground v.1.15,2013-04-08 15:44:00,
2013-04-08 11:50:00,61.4,47.4,30.07,SW,217,2.0,2.0,60,0.00,,,0.00,812,Wunderground v.1.15,2013-04-08 15:50:00,
2013-04-08 12:00:00,60.6,47.5,30.07,South,186,2.0,3.0,62,0.00,,,0.00,816,Wunderground v.1.15,2013-04-08 16:00:00,
2013-04-08 12:10:00,60.1,47.5,30.07,SSE,168,2.0,3.0,63,0.00,,,0.00,831,Wunderground v.1.15,2013-04-08 16:10:00,
2013-04-08 12:15:00,60.3,47.6,30.08,SSE,161,2.0,4.0,63,0.00,,,0.00,835,Wunderground v.1.15,2013-04-08 16:15:00,
2013-04-08 12:25:00,60.2,47.1,30.08,SW,223,3.0,4.0,62,0.00,,,0.00,837,Wunderground v.1.15,2013-04-08 16:25:00,
2013-04-08 12:35:00,60.4,47.3,30.07,SE,130,2.0,2.0,62,0.00,,,0.00,840,Wunderground v.1.15,2013-04-08 16:35:00,
2013-04-08 12:40:00,60.7,47.6,30.07,SSE,161,2.0,2.0,62,0.00,,,0.00,840,Wunderground v.1.15,2013-04-08 16:40:00,
2013-04-08 12:45:00,61.2,48.1,30.07,SSE,158,1.0,3.0,62,0.00,,,0.00,846,Wunderground v.1.15,2013-04-08 16:45:00,
2013-04-08 12:50:00,61.2,47.6,30.07,South,187,2.0,2.0,61,0.00,,,0.00,844,Wunderground v.1.15,2013-04-08 16:50:00,
2013-04-08 13:00:00,61.5,47.9,30.08,SW,216,1.0,1.0,61,0.00,,,0.00,851,Wunderground v.1.15,2013-04-08 17:00:00,
2013-04-08 13:09:00,60.8,48.1,30.08,South,188,1.0,1.0,63,0.00,,,0.00,847,Wunderground v.1.15,2013-04-08 17:09:00,
2013-04-08 13:15:00,60.7,48.0,30.08,WSW,252,1.0,1.0,63,0.00,,,0.00,846,Wunderground v.1.15,2013-04-08 17:15:00,
2013-04-08 13:20:00,61.0,48.7,30.08,WSW,248,1.0,1.0,64,0.00,,,0.00,844,Wunderground v.1.15,2013-04-08 17:20:00,
2013-04-08 13:30:00,61.9,48.7,30.08,WSW,256,0.0,2.0,62,0.00,,,0.00,840,Wunderground v.1.15,2013-04-08 17:30:00,
2013-04-08 13:35:00,61.6,48.4,30.08,West,262,1.0,2.0,62,0.00,,,0.00,840,Wunderground v.1.15,2013-04-08 17:35:00,
2013-04-08 13:49:00,60.9,48.2,30.07,SW,230,1.0,1.0,63,0.00,,,0.00,824,Wunderground v.1.15,2013-04-08 17:49:00,
2013-04-08 13:55:00,60.9,48.6,30.07,West,269,1.0,1.0,64,0.00,,,0.00,819,Wunderground v.1.15,2013-04-08 17:55:00,
2013-04-08 14:05:00,60.9,48.2,30.07,WNW,284,1.0,3.0,63,0.00,,,0.00,812,Wunderground v.1.15,2013-04-08 18:05:00,
2013-04-08 14:10:00,61.4,48.7,30.07,SSW,205,1.0,1.0,63,0.00,,,0.00,805,Wunderground v.1.15,2013-04-08 18:10:00,
2013-04-08 14:15:00,61.9,48.3,30.07,South,182,1.0,1.0,61,0.00,,,0.00,798,Wunderground v.1.15,2013-04-08 18:15:00,
2013-04-08 14:24:00,63.0,49.8,30.06,SSW,201,0.0,1.0,62,0.00,,,0.00,789,Wunderground v.1.15,2013-04-08 18:24:00,
2013-04-08 14:34:00,64.0,48.5,30.06,WSW,244,0.0,1.0,57,0.00,,,0.00,777,Wunderground v.1.15,2013-04-08 18:34:00,
2013-04-08 14:40:00,64.3,48.7,30.06,WSW,250,0.0,1.0,57,0.00,,,0.00,782,Wunderground v.1.15,2013-04-08 18:40:00,
2013-04-08 14:49:00,64.1,48.5,30.06,South,180,1.0,1.0,57,0.00,,,0.00,504,Wunderground v.1.15,2013-04-08 18:49:00,
2013-04-08 14:55:00,64.2,48.6,30.06,SSW,195,0.0,1.0,57,0.00,,,0.00,392,Wunderground v.1.15,2013-04-08 18:55:00,
2013-04-08 15:00:00,63.8,48.3,30.06,WSW,239,0.0,0.0,57,0.00,,,0.00,446,Wunderground v.1.15,2013-04-08 19:00:00,
2013-04-08 15:05:00,63.5,48.5,30.06,West,274,1.0,1.0,58,0.00,,,0.00,747,Wunderground v.1.15,2013-04-08 19:05:00,
2013-04-08 15:10:00,63.2,48.2,30.06,WNW,284,1.0,2.0,58,0.00,,,0.00,726,Wunderground v.1.15,2013-04-08 19:10:00,
2013-04-08 15:20:00,63.3,48.7,30.05,South,173,0.0,1.0,59,0.00,,,0.00,733,Wunderground v.1.15,2013-04-08 19:20:00,
2013-04-08 15:25:00,63.5,48.9,30.05,SSW,207,0.0,1.0,59,0.00,,,0.00,680,Wunderground v.1.15,2013-04-08 19:25:00,
2013-04-08 15:30:00,63.6,49.0,30.05,WSW,242,1.0,1.0,59,0.00,,,0.00,671,Wunderground v.1.15,2013-04-08 19:30:00,
2013-04-08 15:40:00,63.8,47.3,30.05,SSW,192,1.0,1.0,55,0.00,,,0.00,647,Wunderground v.1.15,2013-04-08 19:40:00,
2013-04-08 15:45:00,63.9,47.9,30.05,SSE,161,1.0,1.0,56,0.00,,,0.00,629,Wunderground v.1.15,2013-04-08 19:45:00,
2013-04-08 15:55:00,63.6,47.1,30.05,South,170,1.0,1.0,55,0.00,,,0.00,585,Wunderground v.1.15,2013-04-08 19:55:00,
2013-04-08 16:05:00,63.2,47.2,30.04,ESE,123,2.0,4.0,56,0.00,,,0.00,506,Wunderground v.1.15,2013-04-08 20:05:00,
2013-04-08 16:15:00,63.6,47.6,30.04,SE,137,1.0,1.0,56,0.00,,,0.00,510,Wunderground v.1.15,2013-04-08 20:15:00,
2013-04-08 16:30:00,62.2,47.7,30.04,South,171,2.0,3.0,59,0.00,,,0.00,466,Wunderground v.1.15,2013-04-08 20:30:00,
2013-04-08 16:40:00,62.0,47.0,30.04,SE,142,1.0,1.0,58,0.00,,,0.00,392,Wunderground v.1.15,2013-04-08 20:40:00,
2013-04-08 16:45:00,61.3,46.8,30.05,SSW,194,2.0,2.0,59,0.00,,,0.00,350,Wunderground v.1.15,2013-04-08 20:45:00,
2013-04-08 16:50:00,60.9,46.9,30.04,SW,215,2.0,4.0,60,0.00,,,0.00,306,Wunderground v.1.15,2013-04-08 20:50:00,
2013-04-08 17:00:00,60.0,46.1,30.05,SSW,196,2.0,2.0,60,0.00,,,0.00,207,Wunderground v.1.15,2013-04-08 21:00:00,
2013-04-08 17:10:00,59.1,46.1,30.05,SE,132,1.0,1.0,62,0.00,,,0.00,204,Wunderground v.1.15,2013-04-08 21:10:00,
2013-04-08 17:15:00,59.0,46.0,30.05,SW,223,1.0,1.0,62,0.00,,,0.00,192,Wunderground v.1.15,2013-04-08 21:15:00,
2013-04-08 17:20:00,58.9,45.9,30.05,South,184,1.0,1.0,62,0.00,,,0.00,211,Wunderground v.1.15,2013-04-08 21:20:00,
2013-04-08 17:25:00,58.9,46.7,30.05,South,188,0.0,1.0,64,0.00,,,0.00,207,Wunderground v.1.15,2013-04-08 21:25:00,
2013-04-08 17:30:00,59.0,47.2,30.05,SSW,194,0.0,0.0,65,0.00,,,0.00,193,Wunderground v.1.15,2013-04-08 21:30:00,
2013-04-08 17:40:00,58.6,46.9,30.06,South,169,1.0,1.0,65,0.00,,,0.00,188,Wunderground v.1.15,2013-04-08 21:40:00,
2013-04-08 17:50:00,58.2,46.9,30.05,South,186,0.0,0.0,66,0.00,,,0.00,181,Wunderground v.1.15,2013-04-08 21:50:00,
2013-04-08 17:55:00,57.7,46.8,30.06,South,181,1.0,3.0,67,0.00,,,0.00,158,Wunderground v.1.15,2013-04-08 21:55:00,
2013-04-08 18:04:00,56.6,46.5,30.06,South,178,1.0,1.0,69,0.00,,,0.00,132,Wunderground v.1.15,2013-04-08 22:04:00,
2013-04-08 18:10:00,56.1,46.4,30.06,SSW,197,0.0,0.0,70,0.00,,,0.00,114,Wunderground v.1.15,2013-04-08 22:10:00,
2013-04-08 18:15:00,55.7,46.4,30.06,SSE,159,0.0,0.0,71,0.00,,,0.00,81,Wunderground v.1.15,2013-04-08 22:15:00,
2013-04-08 18:25:00,54.7,45.8,30.06,SSW,213,1.0,2.0,72,0.00,,,0.00,60,Wunderground v.1.15,2013-04-08 22:25:00,
2013-04-08 18:30:00,54.3,45.8,30.06,South,172,0.0,0.0,73,0.00,,,0.00,49,Wunderground v.1.15,2013-04-08 22:30:00,
2013-04-08 18:40:00,53.6,45.5,30.06,South,182,0.0,0.0,74,0.00,,,0.00,32,Wunderground v.1.15,2013-04-08 22:40:00,
2013-04-08 18:45:00,53.3,45.6,30.06,South,182,0.0,0.0,75,0.00,,,0.00,28,Wunderground v.1.15,2013-04-08 22:45:00,
2013-04-08 18:50:00,52.9,45.5,30.06,South,188,0.0,0.0,76,0.00,,,0.00,26,Wunderground v.1.15,2013-04-08 22:50:00,
2013-04-08 19:00:00,52.2,45.2,30.06,South,191,0.0,0.0,77,0.00,,,0.00,18,Wunderground v.1.15,2013-04-08 23:00:00,
2013-04-08 19:05:00,51.9,45.3,30.06,South,189,0.0,1.0,78,0.00,,,0.00,14,Wunderground v.1.15,2013-04-08 23:05:00,
2013-04-08 19:10:00,51.6,45.0,30.06,South,189,0.0,0.0,78,0.00,,,0.00,9,Wunderground v.1.15,2013-04-08 23:10:00,
2013-04-08 19:20:00,51.1,44.8,30.05,South,189,0.0,0.0,79,0.00,,,0.00,0,Wunderground v.1.15,2013-04-08 23:20:00,
2013-04-08 19:25:00,50.9,44.9,30.05,South,189,0.0,0.0,80,0.00,,,0.00,0,Wunderground v.1.15,2013-04-08 23:25:00,
2013-04-08 19:35:00,50.5,44.9,30.05,South,189,0.0,0.0,81,0.00,,,0.00,0,Wunderground v.1.15,2013-04-08 23:35:00,
2013-04-08 19:45:00,50.1,44.8,30.05,South,189,0.0,0.0,82,0.00,,,0.00,0,Wunderground v.1.15,2013-04-08 23:45:00,
2013-04-08 19:50:00,49.8,44.5,30.05,South,188,0.0,0.0,82,0.00,,,0.00,0,Wunderground v.1.15,2013-04-08 23:50:00,
2013-04-08 20:00:00,49.5,44.2,30.06,South,188,0.0,0.0,82,0.00,,,0.00,0,Wunderground v.1.15,2013-04-09 00:00:00,
2013-04-08 20:05:00,49.4,44.5,30.06,South,188,0.0,0.0,83,0.00,,,0.00,0,Wunderground v.1.15,2013-04-09 00:05:00,
2013-04-08 20:15:00,49.0,44.1,30.06,South,188,0.0,0.0,83,0.00,,,0.00,0,Wunderground v.1.15,2013-04-09 00:15:00,
2013-04-08 20:25:00,48.7,43.8,30.07,South,188,0.0,0.0,83,0.00,,,0.00,0,Wunderground v.1.15,2013-04-09 00:25:00,
2013-04-08 20:30:00,48.6,44.0,30.07,South,188,0.0,0.0,84,0.00,,,0.00,0,Wunderground v.1.15,2013-04-09 00:30:00,
2013-04-08 20:40:00,48.3,44.0,30.07,South,188,0.0,0.0,85,0.00,,,0.00,0,Wunderground v.1.15,2013-04-09 00:40:00,
2013-04-08 20:50:00,48.1,43.8,30.07,South,188,0.0,0.0,85,0.00,,,0.00,0,Wunderground v.1.15,2013-04-09 00:50:00,
2013-04-08 20:55:00,48.0,43.7,30.07,South,188,0.0,0.0,85,0.00,,,0.00,0,Wunderground v.1.15,2013-04-09 00:55:00,
2013-04-08 21:05:00,47.9,43.9,30.07,South,188,0.0,0.0,86,0.00,,,0.00,0,Wunderground v.1.15,2013-04-09 01:05:00,
2013-04-08 21:10:00,47.8,43.8,30.07,South,188,0.0,0.0,86,0.00,,,0.00,0,Wunderground v.1.15,2013-04-09 01:10:00,
2013-04-08 21:15:00,47.8,44.1,30.07,South,186,0.0,0.0,87,0.00,,,0.00,0,Wunderground v.1.15,2013-04-09 01:15:00,
2013-04-08 21:25:00,47.9,44.5,30.08,SSE,167,0.0,2.0,88,0.00,,,0.00,0,Wunderground v.1.15,2013-04-09 01:25:00,
2013-04-08 21:34:00,48.2,44.8,30.08,South,184,1.0,3.0,88,0.00,,,0.00,0,Wunderground v.1.15,2013-04-09 01:34:00,
2013-04-08 21:40:00,48.2,44.5,30.07,South,184,1.0,1.0,87,0.00,,,0.00,0,Wunderground v.1.15,2013-04-09 01:40:00,
2013-04-08 21:45:00,48.3,44.6,30.07,South,184,0.0,1.0,87,0.00,,,0.00,0,Wunderground v.1.15,2013-04-09 01:45:00,
2013-04-08 21:50:00,48.3,44.6,30.08,South,186,0.0,0.0,87,0.00,,,0.00,0,Wunderground v.1.15,2013-04-09 01:50:00,
2013-04-08 22:00:00,48.3,44.6,30.08,SSW,194,0.0,1.0,87,0.00,,,0.00,0,Wunderground v.1.15,2013-04-09 02:00:00,
2013-04-08 22:05:00,48.3,44.6,30.08,SSW,192,0.0,1.0,87,0.00,,,0.00,0,Wunderground v.1.15,2013-04-09 02:05:00,
2013-04-08 22:15:00,48.2,44.8,30.08,SE,138,0.0,0.0,88,0.00,,,0.00,0,Wunderground v.1.15,2013-04-09 02:15:00,
2013-04-08 22:20:00,48.2,44.8,30.08,SSE,161,0.0,1.0,88,0.00,,,0.00,0,Wunderground v.1.15,2013-04-09 02:20:00,
2013-04-08 22:25:00,48.2,44.8,30.08,SSE,163,0.0,1.0,88,0.00,,,0.00,0,Wunderground v.1.15,2013-04-09 02:25:00,
2013-04-08 22:35:00,48.2,45.1,30.08,South,175,0.0,0.0,89,0.00,,,0.00,0,Wunderground v.1.15,2013-04-09 02:35:00,
2013-04-08 22:45:00,48.2,45.1,30.08,SSW,192,1.0,3.0,89,0.00,,,0.00,0,Wunderground v.1.15,2013-04-09 02:45:00,
2013-04-08 22:50:00,48.2,45.1,30.07,South,186,1.0,1.0,89,0.00,,,0.00,0,Wunderground v.1.15,2013-04-09 02:50:00,
2013-04-08 23:00:00,48.0,44.9,30.07,South,180,1.0,1.0,89,0.00,,,0.00,0,Wunderground v.1.15,2013-04-09 03:00:00,
2013-04-08 23:05:00,47.9,44.8,30.06,SE,132,1.0,1.0,89,0.00,,,0.00,0,Wunderground v.1.15,2013-04-09 03:05:00,
2013-04-08 23:10:00,47.8,44.7,30.06,SE,140,1.0,2.0,89,0.00,,,0.00,0,Wunderground v.1.15,2013-04-09 03:10:00,
2013-04-08 23:15:00,47.6,44.5,30.06,South,176,1.0,2.0,89,0.00,,,0.00,0,Wunderground v.1.15,2013-04-09 03:15:00,
2013-04-08 23:25:00,47.2,44.4,30.05,East,97,1.0,3.0,90,0.00,,,0.00,0,Wunderground v.1.15,2013-04-09 03:25:00,
2013-04-08 23:30:00,47.1,44.3,30.05,South,173,2.0,2.0,90,0.00,,,0.00,0,Wunderground v.1.15,2013-04-09 03:30:00,
2013-04-08 23:35:00,47.0,44.2,30.05,East,92,1.0,2.0,90,0.00,,,0.00,0,Wunderground v.1.15,2013-04-09 03:35:00,
2013-04-08 23:44:00,46.9,44.1,30.06,SE,134,0.0,1.0,90,0.00,,,0.00,0,Wunderground v.1.15,2013-04-09 03:44:00,
2013-04-08 23:50:00,46.9,44.4,30.06,SE,134,0.0,0.0,91,0.00,,,0.00,0,Wunderground v.1.15,2013-04-09 03:50:00,